EZY24YG EGNM-EGAA

Flight info

Callsign EZY24YG
Flight time 0h 39m
Altitude 24000
Route POL Y70 KOLID L70 GUNTU Z196 DIGMA M146 IPSET P6 BELZU
Aircraft A320/M-SDE3FGHIRWY/LB1

Departure

Time 2026-04-29 17:41
Airport Leeds Bradford Airport (EGNM)

Arrival

Time 2026-04-29 18:21
Airport Belfast International Airport (EGAA)
Time Latitude Longitude Altitude Speed Heading
2026-04-29 17:02 53.86882 -1.65690 692 ft 0 kts
2026-04-29 17:32 53.86881 -1.65690 665 ft 2 kts
2026-04-29 17:33 53.86856 -1.65691 665 ft 4 kts
2026-04-29 17:33 53.86834 -1.65691 665 ft 4 kts 349°
2026-04-29 17:33 53.86817 -1.65674 663 ft 4 kts 277°
2026-04-29 17:33 53.86816 -1.65631 663 ft 4 kts 271°
2026-04-29 17:34 53.86816 -1.65606 664 ft 1 kts 271°
2026-04-29 17:36 53.86816 -1.65629 663 ft 2 kts 271°
2026-04-29 17:36 53.86816 -1.65651 662 ft 2 kts 271°
2026-04-29 17:37 53.86817 -1.65687 663 ft 4 kts 271°
2026-04-29 17:37 53.86817 -1.65723 665 ft 3 kts 267°
2026-04-29 17:37 53.86813 -1.65792 665 ft 9 kts 268°
2026-04-29 17:37 53.86814 -1.65929 665 ft 13 kts 271°
2026-04-29 17:38 53.86826 -1.66093 664 ft 16 kts 300°
2026-04-29 17:38 53.86907 -1.66229 666 ft 16 kts 317°
2026-04-29 17:38 53.86962 -1.66335 670 ft 0 kts 300°
2026-04-29 17:39 53.86973 -1.66366 671 ft 18 kts 300°
2026-04-29 17:40 53.86969 -1.66563 672 ft 14 kts 253°
2026-04-29 17:40 53.86907 -1.66543 671 ft 5 kts 138°
2026-04-29 17:40 53.86907 -1.66542 671 ft 0 kts 138°
2026-04-29 17:41 53.86812 -1.66397 668 ft 54 kts 137°
2026-04-29 17:41 53.86358 -1.65697 673 ft 119 kts 138°
2026-04-29 17:41 53.85621 -1.64597 884 ft 153 kts 137°
2026-04-29 17:41 53.84773 -1.63518 1665 ft 151 kts 133°
2026-04-29 17:42 53.83971 -1.62291 2259 ft 164 kts 129°
2026-04-29 17:42 53.83029 -1.60976 2597 ft 193 kts 147°
2026-04-29 17:42 53.81575 -1.60815 2921 ft 237 kts 190°
2026-04-29 17:42 53.80128 -1.62532 3371 ft 277 kts 229°
2026-04-29 17:43 53.79436 -1.65649 4184 ft 293 kts 261°
2026-04-29 17:43 53.79205 -1.69080 5138 ft 293 kts 251°
2026-04-29 17:43 53.78227 -1.71999 6004 ft 283 kts 217°
2026-04-29 17:43 53.76554 -1.73498 6862 ft 270 kts 184°
2026-04-29 17:44 53.74749 -1.73271 7229 ft 256 kts 152°
2026-04-29 17:44 53.73426 -1.71425 7353 ft 247 kts 119°
2026-04-29 17:44 53.73050 -1.68640 7380 ft 249 kts 85°
2026-04-29 17:44 53.73786 -1.65972 7375 ft 262 kts 51°
2026-04-29 17:45 53.75374 -1.64317 7382 ft 277 kts 25°
2026-04-29 17:45 53.77297 -1.63722 7382 ft 288 kts
2026-04-29 17:45 53.79275 -1.64484 7382 ft 299 kts 337°
2026-04-29 17:45 53.80905 -1.66691 7382 ft 305 kts 308°
2026-04-29 17:46 53.81778 -1.69927 7383 ft 305 kts 278°
2026-04-29 17:46 53.81712 -1.73450 7380 ft 298 kts 250°
2026-04-29 17:46 53.80781 -1.76488 7383 ft 288 kts 223°
2026-04-29 17:46 53.79408 -1.78932 7384 ft 287 kts 219°
2026-04-29 17:47 53.78128 -1.81483 7382 ft 292 kts 231°
2026-04-29 17:47 53.77178 -1.84595 7382 ft 297 kts 246°
2026-04-29 17:47 53.76682 -1.88010 7376 ft 301 kts 257°
2026-04-29 17:47 53.76333 -1.91503 7376 ft 302 kts 257°
2026-04-29 17:48 53.75982 -1.94948 7373 ft 302 kts 256°
2026-04-29 17:48 53.75620 -1.98441 7375 ft 302 kts 256°
2026-04-29 17:48 53.75255 -2.01933 7376 ft 302 kts 256°
2026-04-29 17:48 53.74891 -2.05421 7374 ft 302 kts 256°
2026-04-29 17:49 53.74521 -2.08910 7378 ft 301 kts 254°
2026-04-29 17:49 53.73875 -2.12226 7478 ft 297 kts 240°
2026-04-29 17:49 53.73005 -2.15392 8363 ft 298 kts 240°
2026-04-29 17:49 53.72424 -2.17556 8939 ft 300 kts 240°
2026-04-29 17:50 53.71565 -2.20787 9813 ft 303 kts 242°
2026-04-29 17:50 53.70700 -2.24051 10652 ft 306 kts 242°
2026-04-29 17:50 53.69839 -2.27301 11394 ft 310 kts 241°
2026-04-29 17:50 53.68938 -2.30679 12132 ft 314 kts 241°
2026-04-29 17:51 53.68035 -2.34052 12880 ft 317 kts 241°
2026-04-29 17:51 53.67133 -2.37413 13624 ft 321 kts 241°
2026-04-29 17:51 53.66203 -2.40871 14330 ft 326 kts 240°
2026-04-29 17:51 53.65261 -2.44367 14983 ft 329 kts 240°
2026-04-29 17:52 53.64307 -2.47897 15644 ft 333 kts 240°
2026-04-29 17:52 53.63343 -2.51459 16303 ft 336 kts 240°
2026-04-29 17:52 53.62372 -2.55061 16945 ft 340 kts 242°
2026-04-29 17:52 53.61436 -2.58736 17587 ft 343 kts 243°
2026-04-29 17:53 53.60525 -2.62475 18262 ft 346 kts 243°
2026-04-29 17:53 53.59623 -2.66243 18891 ft 348 kts 243°
2026-04-29 17:53 53.58712 -2.70038 19464 ft 351 kts 244°
2026-04-29 17:53 53.57987 -2.73992 20038 ft 357 kts 253°
2026-04-29 17:54 53.57644 -2.78164 20611 ft 363 kts 263°
2026-04-29 17:54 53.57707 -2.82441 21178 ft 368 kts 272°
2026-04-29 17:54 53.57930 -2.86747 21731 ft 371 kts 271°
2026-04-29 17:54 53.58152 -2.91079 22281 ft 373 kts 271°
2026-04-29 17:55 53.58370 -2.95440 22830 ft 375 kts 271°
2026-04-29 17:55 53.58584 -2.99832 23380 ft 378 kts 271°
2026-04-29 17:55 53.58798 -3.04249 23920 ft 380 kts 271°
2026-04-29 17:55 53.59008 -3.08693 24232 ft 382 kts 270°
2026-04-29 17:56 53.59220 -3.13235 24328 ft 397 kts 270°
2026-04-29 17:56 53.59549 -3.17950 24331 ft 415 kts 278°
2026-04-29 17:56 53.60151 -3.22801 24331 ft 429 kts 279°
2026-04-29 17:56 53.60769 -3.27749 24334 ft 434 kts 278°
2026-04-29 17:57 53.61389 -3.32726 24328 ft 435 kts 278°
2026-04-29 17:57 53.62004 -3.37710 24331 ft 435 kts 278°
2026-04-29 17:57 53.62617 -3.42697 24326 ft 435 kts 278°
2026-04-29 17:57 53.63218 -3.47624 24327 ft 435 kts 278°
2026-04-29 17:58 53.63826 -3.52613 24324 ft 435 kts 278°
2026-04-29 17:58 53.64465 -3.57597 24315 ft 436 kts 282°
2026-04-29 17:58 53.65474 -3.62431 24314 ft 439 kts 292°
2026-04-29 17:58 53.66951 -3.66953 24325 ft 442 kts 302°
2026-04-29 17:59 53.68727 -3.71188 24302 ft 443 kts 304°
2026-04-29 17:59 53.70510 -3.75433 24285 ft 444 kts 304°
2026-04-29 17:59 53.72291 -3.79702 24282 ft 445 kts 304°
2026-04-29 17:59 53.74067 -3.83982 24283 ft 446 kts 304°
2026-04-29 18:00 53.75845 -3.88283 24283 ft 446 kts 304°
2026-04-29 18:00 53.77621 -3.92589 24286 ft 447 kts 304°
2026-04-29 18:00 53.79399 -3.96902 24286 ft 447 kts 304°
2026-04-29 18:00 53.81181 -4.01220 24288 ft 448 kts 304°
2026-04-29 18:01 53.82964 -4.05541 24290 ft 448 kts 304°
2026-04-29 18:01 53.84745 -4.09867 24291 ft 448 kts 304°
2026-04-29 18:01 53.86523 -4.14202 24293 ft 448 kts 304°
2026-04-29 18:01 53.88301 -4.18539 24303 ft 448 kts 304°
2026-04-29 18:02 53.90078 -4.22877 24320 ft 448 kts 303°
2026-04-29 18:02 53.91853 -4.27226 24317 ft 448 kts 303°
2026-04-29 18:02 53.93627 -4.31574 24295 ft 449 kts 304°
2026-04-29 18:02 53.95404 -4.35931 24296 ft 449 kts 304°
2026-04-29 18:03 53.97183 -4.40291 24300 ft 449 kts 304°
2026-04-29 18:03 53.98963 -4.44662 24302 ft 450 kts 304°
2026-04-29 18:03 54.00737 -4.49035 24305 ft 450 kts 304°
2026-04-29 18:03 54.02640 -4.53262 24305 ft 450 kts 312°
2026-04-29 18:04 54.04754 -4.57189 24308 ft 450 kts 313°
2026-04-29 18:04 54.06871 -4.61115 24308 ft 450 kts 313°
2026-04-29 18:04 54.08991 -4.65046 24312 ft 450 kts 313°
2026-04-29 18:04 54.11108 -4.68984 24305 ft 451 kts 313°
2026-04-29 18:05 54.13222 -4.72929 24307 ft 451 kts 313°
2026-04-29 18:05 54.15333 -4.76878 24309 ft 450 kts 313°
2026-04-29 18:05 54.17440 -4.80830 24308 ft 451 kts 313°
2026-04-29 18:05 54.19551 -4.84793 24301 ft 451 kts 313°
2026-04-29 18:06 54.21665 -4.88765 24306 ft 452 kts 313°
2026-04-29 18:06 54.23783 -4.92747 24306 ft 453 kts 313°
2026-04-29 18:06 54.25901 -4.96733 24312 ft 453 kts 313°
2026-04-29 18:06 54.28020 -5.00726 24312 ft 454 kts 313°
2026-04-29 18:07 54.30135 -5.04713 24296 ft 448 kts 313°
2026-04-29 18:07 54.32215 -5.08640 23857 ft 442 kts 313°
2026-04-29 18:07 54.34279 -5.12544 23094 ft 443 kts 313°
2026-04-29 18:07 54.36320 -5.16420 22300 ft 445 kts 313°
2026-04-29 18:08 54.38395 -5.20376 21527 ft 447 kts 312°
2026-04-29 18:08 54.40476 -5.24354 20754 ft 449 kts 312°
2026-04-29 18:08 54.42560 -5.28348 20013 ft 450 kts 312°
2026-04-29 18:08 54.44650 -5.32354 19301 ft 450 kts 313°
2026-04-29 18:09 54.46757 -5.36340 18596 ft 451 kts 314°
2026-04-29 18:09 54.48875 -5.40314 17797 ft 451 kts 309°
2026-04-29 18:09 54.50570 -5.44839 17010 ft 450 kts 294°
2026-04-29 18:09 54.51562 -5.49904 16255 ft 446 kts 278°
2026-04-29 18:10 54.51781 -5.55175 15515 ft 440 kts 265°
2026-04-29 18:10 54.51718 -5.60432 14783 ft 439 kts 265°
2026-04-29 18:10 54.51654 -5.65678 14067 ft 438 kts 265°
2026-04-29 18:10 54.51591 -5.70907 13268 ft 436 kts 265°
2026-04-29 18:11 54.51528 -5.76103 12500 ft 433 kts 266°
2026-04-29 18:11 54.51469 -5.81266 11742 ft 430 kts 266°
2026-04-29 18:11 54.51413 -5.86391 11014 ft 426 kts 266°
2026-04-29 18:11 54.51360 -5.91470 10293 ft 423 kts 266°
2026-04-29 18:12 54.51305 -5.96476 9738 ft 413 kts 266°
2026-04-29 18:12 54.51247 -6.01328 9241 ft 393 kts 266°
2026-04-29 18:12 54.51191 -6.05863 8872 ft 365 kts 266°
2026-04-29 18:12 54.51136 -6.10094 8520 ft 343 kts 266°
2026-04-29 18:13 54.51081 -6.14077 8150 ft 324 kts 266°
2026-04-29 18:13 54.51028 -6.17847 7766 ft 310 kts 266°
2026-04-29 18:13 54.50976 -6.21477 7368 ft 297 kts 265°
2026-04-29 18:13 54.50925 -6.24965 6975 ft 286 kts 265°
2026-04-29 18:14 54.50874 -6.28324 6577 ft 276 kts 265°
2026-04-29 18:14 54.50823 -6.31571 6164 ft 267 kts 265°
2026-04-29 18:14 54.50771 -6.34724 5755 ft 260 kts 265°
2026-04-29 18:14 54.50719 -6.37793 5352 ft 253 kts 265°
2026-04-29 18:15 54.50831 -6.40797 4942 ft 252 kts 283°
2026-04-29 18:15 54.51595 -6.43497 4449 ft 253 kts 310°
2026-04-29 18:15 54.52921 -6.45415 3988 ft 248 kts 336°
2026-04-29 18:15 54.54478 -6.46667 3543 ft 247 kts 339°
2026-04-29 18:16 54.56039 -6.47899 3077 ft 246 kts 343°
2026-04-29 18:16 54.57649 -6.48245 2602 ft 226 kts 23°
2026-04-29 18:16 54.58829 -6.46900 2492 ft 188 kts 62°
2026-04-29 18:16 54.59391 -6.45065 2514 ft 162 kts 71°
2026-04-29 18:17 54.59854 -6.43392 2506 ft 150 kts 71°
2026-04-29 18:17 54.60292 -6.41794 2505 ft 145 kts 72°
2026-04-29 18:17 54.60719 -6.40220 2321 ft 143 kts 71°
2026-04-29 18:17 54.61139 -6.38663 2142 ft 142 kts 72°
2026-04-29 18:18 54.61553 -6.37137 1917 ft 139 kts 71°
2026-04-29 18:18 54.61960 -6.35640 1738 ft 137 kts 71°
2026-04-29 18:18 54.62360 -6.34161 1551 ft 137 kts 69°
2026-04-29 18:18 54.62754 -6.32695 1377 ft 132 kts 69°
2026-04-29 18:19 54.63137 -6.31272 1202 ft 130 kts 68°
2026-04-29 18:19 54.63522 -6.29841 1028 ft 133 kts 69°
2026-04-29 18:19 54.63911 -6.28402 849 ft 131 kts 68°
2026-04-29 18:19 54.64294 -6.26980 726 ft 131 kts 66°
2026-04-29 18:20 54.64686 -6.25531 595 ft 134 kts 66°
2026-04-29 18:20 54.65077 -6.24084 397 ft 132 kts 67°
2026-04-29 18:20 54.65457 -6.22655 274 ft 125 kts 66°
2026-04-29 18:20 54.65773 -6.21484 275 ft 93 kts 65°
2026-04-29 18:21 54.66007 -6.20604 272 ft 70 kts 65°
2026-04-29 18:21 54.66179 -6.19985 272 ft 45 kts 65°
2026-04-29 18:21 54.66264 -6.19700 272 ft 16 kts 40°
2026-04-29 18:21 54.66363 -6.19719 275 ft 14 kts 322°
2026-04-29 18:22 54.66390 -6.19848 272 ft 11 kts 268°
2026-04-29 18:22 54.66368 -6.19964 272 ft 10 kts 246°
2026-04-29 18:22 54.66341 -6.20065 272 ft 9 kts 246°
2026-04-29 18:22 54.66318 -6.20154 273 ft 8 kts 245°
2026-04-29 18:23 54.66296 -6.20234 272 ft 9 kts 244°
2026-04-29 18:23 54.66258 -6.20373 272 ft 16 kts 245°
2026-04-29 18:23 54.66211 -6.20548 275 ft 15 kts 245°
2026-04-29 18:23 54.66167 -6.20708 272 ft 14 kts 245°
2026-04-29 18:24 54.66128 -6.20855 272 ft 13 kts 245°
2026-04-29 18:24 54.66092 -6.20989 273 ft 12 kts 245°
2026-04-29 18:24 54.66059 -6.21110 272 ft 11 kts 245°
2026-04-29 18:24 54.66073 -6.21213 272 ft 9 kts 320°
2026-04-29 18:25 54.66124 -6.21260 273 ft 8 kts 334°
2026-04-29 18:25 54.66170 -6.21297 272 ft 7 kts 335°
2026-04-29 18:25 54.66196 -6.21346 272 ft 5 kts 272°
2026-04-29 18:25 54.66188 -6.21385 272 ft 1 kts 246°
2026-04-29 18:26 54.66185 -6.21395 272 ft 1 kts 246°
2026-04-29 18:26 54.66182 -6.21405 272 ft 1 kts 245°
2026-04-29 18:26 54.66182 -6.21407 272 ft 0 kts 245°
2026-04-29 18:26 54.66181 -6.21411 272 ft 0 kts 245°
2026-04-29 18:27 54.66180 -6.21414 272 ft 0 kts 245°